Overview Statistics Trail Chart Weather Telemetry Raw packets
 

This is the latest recevied weather packets stored in our database for station/object 4S6DRJ-13. If no packets are shown the sender has not sent any weather packets the latest 10 day(s).

<< 327 328 329 330 331 332 333 >>
Time Temp. Humidity Pressure Rain* Wind** Luminosity Snow
1787980289 30.56° C 75% 1011.1 hPa 0 mm 2.68 m/s, 236° 1102 W/m² -
1787980228 30.56° C 75% 1011.1 hPa 0 mm 2.68 m/s, 227° 860 W/m² -
1787980167 30° C 76% 1011 hPa 0 mm 1.34 m/s, 40° 353 W/m² -
1787980106 30° C 76% 1011 hPa 0 mm 1.34 m/s, 259° 489 W/m² -
1787980045 30° C 76% 1011.1 hPa 0 mm 1.79 m/s, 265° 1102 W/m² -
1787979984 30° C 77% 1011 hPa 0 mm 1.34 m/s, 195° 957 W/m² -
1787979923 30° C 76% 1011.1 hPa 0 mm 0.89 m/s, 205° 371 W/m² -
1787979862 30° C 76% 1011.1 hPa 0 mm 2.68 m/s, 277° 462 W/m² -
1787979801 30° C 76% 1011 hPa 0 mm 3.58 m/s, 209° 967 W/m² -
1787979740 30° C 77% 1010.9 hPa 0 mm 1.79 m/s, 251° 966 W/m² -
1787979680 30° C 77% 1011 hPa 0 mm 1.79 m/s, 165° 375 W/m² -
1787979618 30° C 78% 1011 hPa 0 mm 1.79 m/s, 264° 908 W/m² -
1787979557 30° C 78% 1011 hPa 0 mm 1.79 m/s, 245° 959 W/m² -
1787979496 30° C 77% 1010.9 hPa 0 mm 1.79 m/s, 264° 885 W/m² -
1787979435 30° C 77% 1011 hPa 0 mm 2.24 m/s, 271° 326 W/m² -
1787979374 30° C 76% 1010.9 hPa 0 mm 3.13 m/s, 260° 547 W/m² -
1787979313 30° C 77% 1011.1 hPa 0 mm 1.34 m/s, 221° 548 W/m² -
1787979252 30° C 77% 1011 hPa 0 mm 2.68 m/s, 288° 526 W/m² -
1787979191 30° C 77% 1011 hPa 0 mm 1.79 m/s, 272° 317 W/m² -
1787979130 30° C 76% 1011.1 hPa 0 mm 0.89 m/s, 225° 298 W/m² -
1787979069 30° C 76% 1011 hPa 0 mm 1.79 m/s, 220° 360 W/m² -
1787979008 30° C 76% 1011 hPa 0 mm 3.13 m/s, 224° 549 W/m² -
1787978947 30° C 77% 1011.1 hPa 0 mm 1.34 m/s, 321° 960 W/m² -
1787978886 30° C 77% 1010.9 hPa 0 mm 0.89 m/s, 280° 929 W/m² -
1787978825 30° C 77% 1011.2 hPa 0 mm 2.68 m/s, 23° 913 W/m² -

* Rain latest hour (hover to see other rain measurements)
** Current wind speed in m/s (hover to see current wind gust speed)